Temperature
24 23 22 22 21 21 20 20 20 20 19 19 19 18 18 18 18 18 18 18 18 17 18 17 17 17 17 17 17 17 17 17 17 17 17 17 17 17 17 17 17 17 17
24 23 22 22 21 21 21 21 20 20 20 19 19 19 19 18 18 18 18 18 18 17 18 18 17 17 17 17 17 17 17 17 17 17 17 18 17 17 17 17 17 17 16
25 24 23 22 22 21 21 21 21 20 20 19 19 19 19 18 18 18 18 18 18 18 18 17 17 17 17 17 17 17 17 17 17 17 17 18 18 18 17 17 16 16 16
25 24 23 22 22 22 22 21 21 21 20 20 19 19 19 19 18 18 18 18 18 18 18 18 18 18 17 17 17 17 17 17 17 17 17 17 17 17 17 17 17 16 16
26 25 24 23 23 22 22 21 21 21 20 20 20 19 19 19 19 18 18 18 18 18 18 18 18 18 17 17 17 17 17 17 17 17 17 17 17 17 17 17 17 16 16
26 25 24 23 23 22 22 22 21 21 21 20 20 19 19 19 19 18 18 18 18 18 18 18 18 18 18 18 18 17 17 17 17 17 17 17 17 17 17 17 17 17 16
26 25 24 23 22 22 22 21 21 21 21 20 20 19 19 19 19 19 18 18 18 18 18 18 18 18 18 18 17 17 17 17 17 17 17 17 17 17 17 17 17 16 16
26 25 24 23 22 22 22 21 21 21 21 20 20 20 20 19 19 19 19 18 18 18 18 18 18 18 18 17 17 17 17 17 17 17 17 17 17 16 17 17 17 17 17
25 25 24 23 22 22 22 21 21 21 21 21 20 20 20 19 19 19 19 18 18 18 18 18 18 18 17 17 17 17 17 17 17 17 17 16 16 16 16 16 16 17 17
25 24 23 23 22 22 21 21 21 21 21 21 20 20 20 20 20 19 19 18 18 18 18 18 17 17 17 17 17 17 17 17 17 17 17 17 16 16 16 16 16 16 16
24 23 23 22 22 21 21 21 21 21 21 21 20 20 20 20 19 19 19 18 18 18 18 18 18 17 17 17 17 17 17 17 17 17 17 17 17 16 16 16 16 16 16
23 23 22 21 21 21 21 20 20 20 20 20 20 20 20 19 19 19 19 19 18 18 18 18 18 17 17 17 17 17 17 17 17 17 17 17 16 16 16 16 16 16 16
22 22 21 21 21 21 20 20 20 20 20 20 19 19 19 19 19 19 18 18 18 18 18 18 17 17 17 17 17 17 17 17 17 17 17 17 16 16 16 16 16 16 15
21 21 21 20 20 20 20 20 20 20 20 19 19 19 19 19 18 18 18 18 18 18 17 17 17 17 17 17 16 16 16 16 16 16 17 17 16 16 16 16 16 15 15
21 20 20 19 19 19 19 19 19 19 19 19 19 19 19 18 18 18 18 18 18 17 17 17 17 17 17 16 16 16 16 16 16 16 16 16 16 16 16 16 15 15 15
21 20 19 19 19 19 19 19 19 19 18 18 18 18 18 18 18 18 18 17 17 17 17 17 17 16 16 16 16 16 16 16 16 16 16 16 16 16 16 16 15 15 15
20 19 19 19 18 18 18 18 18 18 18 18 18 18 18 18 18 17 17 17 17 17 17 17 17 16 17 16 16 16 16 16 16 15 15 15 16 16 15 15 15 15 15
19 19 19 18 18 18 18 18 17 17 17 17 17 17 18 17 17 17 17 17 16 16 16 16 16 16 16 16 16 16 15 15 15 15 15 15 15 15 15 15 14 14 14
18 18 18 18 17 17 17 17 17 17 17 17 17 17 17 17 17 17 17 16 16 16 16 16 16 16 16 16 16 16 15 15 15 15 15 15 15 15 15 14 14 14 14
17 17 17 17 17 17 17 17 16 16 17 17 17 17 17 16 16 16 16 16 16 16 16 16 16 16 16 16 16 15 15 14 14 14 14 14 14 14 14 14 13 13 13
17 17 17 17 16 16 16 16 16 16 16 16 16 16 16 16 16 16 16 16 15 15 15 15 15 15 15 15 15 15 15 14 14 14 14 14 14 14 14 14 13 13 13
16 16 16 16 16 16 16 16 16 16 16 16 15 16 16 16 15 15 15 15 15 15 15 15 15 15 15 15 14 14 14 14 14 14 14 13 14 14 13 13 13 13 13
15 15 15 15 15 15 15 15 15 15 15 15 15 15 15 15 15 15 15 15 15 15 15 14 14 14 14 14 14 14 14 14 14 13 13 13 13 13 13 13 12 12 12
15 15 15 15 15 15 14 14 15 15 15 15 15 14 14 14 14 14 14 14 14 14 14 14 14 14 13 13 14 13 13 13 13 13 13 13 13 12 12 12 12 12 12
14 14 14 14 14 14 14 14 14 14 14 14 14 14 14 14 14 14 14 14 14 14 14 13 13 13 13 13 13 13 13 13 12 12 12 12 12 11 11 11 11 11 11
14 13 13 13 13 13 13 13 13 13 13 13 14 14 14 13 13 13 13 13 13 13 13 13 13 12 12 12 12 12 12 12 12 12 11 11 11 11 11 11 11 10 11
Wind_Speed
13 12 12 11 11 11 11 11 10 9 8 6 6 5 5 5 4 4 5 5 5 5 5 3 3 3 3 3 3 2 3 2 2 2 2 2 3 2 2 2 2 2 2
13 13 13 13 13 12 12 12 11 10 9 7 5 4 3 4 3 3 3 4 5 5 5 4 4 3 3 4 4 3 3 2 3 2 2 2 3 3 2 2 2 2 2
15 15 14 14 14 13 13 12 12 11 10 9 6 5 4 4 4 4 3 4 4 4 4 4 4 4 4 4 4 4 5 4 3 3 3 2 2 1 2 2 2 2 1
14 14 15 15 15 14 13 12 12 11 11 10 8 8 6 5 4 4 3 3 4 4 5 4 4 4 4 4 5 5 5 5 4 4 3 3 1 2 1 2 3 2 2
14 15 15 15 14 14 13 13 12 11 11 10 9 9 7 5 4 4 4 4 4 5 5 5 5 5 4 4 4 4 6 5 5 4 3 4 3 4 3 2 2 3 2
13 14 14 13 13 13 13 12 12 12 11 11 10 10 8 7 5 5 5 5 4 4 5 5 5 5 4 5 5 5 6 5 5 5 4 4 4 4 4 4 4 3 2
12 12 13 13 13 13 12 12 12 12 12 11 10 9 8 8 8 7 6 5 5 4 5 5 5 5 5 5 5 5 5 6 6 6 5 5 5 4 4 4 3 3 3
11 11 12 12 12 13 13 13 13 12 11 10 9 8 8 7 6 6 6 5 4 4 4 5 5 5 6 6 5 5 6 6 6 6 6 5 5 4 5 4 4 4 4
9 10 10 11 12 12 12 12 12 12 11 10 9 8 8 7 6 6 6 5 5 4 5 5 5 5 6 6 6 5 5 6 6 6 7 6 5 5 5 5 5 5 5
8 8 9 10 10 10 10 11 11 11 11 10 9 8 8 7 6 6 6 5 5 5 6 6 6 6 6 6 6 6 6 7 6 5 6 6 6 5 5 5 5 6 6
7 7 7 8 8 9 10 10 10 10 10 9 9 8 7 7 6 6 6 6 6 6 6 6 6 6 7 6 6 7 7 8 7 7 7 7 6 5 5 5 5 5 5
6 6 7 7 8 8 9 9 9 10 9 9 9 8 7 7 7 6 6 6 6 6 7 7 7 7 7 7 7 8 8 8 8 8 8 8 6 7 6 5 6 5 5
6 6 7 7 7 7 7 8 8 8 8 8 8 8 7 7 7 6 6 6 6 6 6 7 7 7 7 7 8 8 8 8 8 8 8 8 7 7 6 6 6 6 6
6 6 6 6 6 6 6 7 8 7 8 8 8 7 7 7 6 6 6 6 6 6 6 7 7 7 8 8 8 8 8 8 7 7 8 8 8 8 7 6 7 6 6
6 6 6 6 6 6 6 6 7 7 7 8 8 7 7 6 6 6 5 5 6 6 6 6 7 7 8 7 8 8 8 8 7 7 7 7 6 4 5 5 6 6 6
6 6 6 6 5 5 5 6 6 6 7 7 7 6 6 6 6 5 5 5 6 6 6 6 7 7 6 3 4 6 7 7 7 7 6 6 6 6 5 3 3 4 6
5 5 5 4 4 4 5 6 6 6 7 7 6 6 5 5 5 5 5 5 5 6 6 6 6 6 4 4 5 6 7 7 6 7 7 6 6 7 7 7 8 7 6
4 4 4 4 3 3 4 5 6 6 6 6 6 5 5 5 5 5 4 4 4 5 5 6 6 6 5 5 6 7 8 7 7 7 7 7 7 6 6 7 7 8 8
2 2 2 3 3 3 4 4 5 5 5 5 4 4 5 5 5 5 5 5 5 5 6 6 6 7 6 5 7 8 7 7 7 7 6 6 7 4 5 7 8 8 7
2 2 2 1 2 2 3 5 4 4 4 3 3 3 4 4 5 5 5 5 5 7 6 6 6 7 7 5 6 8 7 7 6 5 6 6 6 5 6 8 8 9 7
2 2 2 2 2 3 3 4 3 3 2 2 3 3 4 4 5 5 5 5 6 6 6 6 7 7 7 6 7 8 7 6 6 5 5 4 6 7 7 8 7 6 5
2 2 2 1 1 1 3 3 2 1 1 2 2 3 4 4 4 4 4 4 5 6 6 6 7 6 6 5 6 8 8 6 6 6 5 3 6 6 6 6 4 4 6
2 1 1 1 1 1 0 1 1 2 2 2 3 3 4 4 3 4 4 4 5 5 5 5 5 5 4 3 6 8 8 8 6 4 2 4 6 6 6 6 7 7 7
2 2 1 1 1 2 1 2 2 2 2 3 4 4 4 4 4 4 4 4 4 5 5 5 5 4 4 4 4 4 5 6 6 4 3 6 7 7 5 6 6 6 5
2 2 2 2 2 2 2 2 2 2 2 3 4 5 4 4 4 4 4 5 4 4 5 5 5 5 5 3 1 3 4 4 3 3 4 4 4 5 5 4 4 5 5
3 3 3 3 3 2 2 2 2 3 4 4 4 4 4 4 4 4 4 2 3 2 3 4 5 4 2 2 2 3 3 4 5 4 5 4 4 5 5 4 4 4 4
Wind_Direction
197 193 195 194 195 195 196 197 199 193 195 197 200 198 203 207 207 209 205 209 212 207 209 216 200 210 210 209 207 206 202 207 204 203 199 200 193 194 205 220 228 210 210
197 195 196 196 198 197 197 196 199 196 197 196 203 209 208 204 203 206 201 221 220 219 212 210 216 209 208 213 219 216 228 224 208 219 221 213 196 195 197 192 212 221 201
201 196 197 199 199 199 199 198 197 195 198 195 194 191 192 203 195 201 203 214 218 219 225 216 225 224 222 219 220 220 226 233 228 230 242 243 222 181 173 185 195 210 227
205 200 199 200 200 199 197 196 194 194 193 195 200 200 206 209 203 204 198 200 206 212 216 218 222 226 222 218 223 218 225 230 228 216 226 254 275 237 202 195 184 194 221
203 200 199 199 199 196 193 191 190 191 192 197 200 208 215 210 203 199 195 209 205 209 216 220 222 222 220 220 226 225 227 226 228 222 211 214 218 231 232 229 225 209 215
201 199 198 195 195 193 191 188 186 190 192 197 203 211 214 211 206 205 208 213 210 209 210 215 221 222 222 218 219 220 220 227 232 233 227 221 219 219 220 233 231 227 219
196 195 194 191 191 190 189 186 184 187 190 196 203 208 215 213 210 214 213 220 220 217 214 220 221 224 221 220 216 214 223 224 228 230 230 233 239 239 236 239 242 242 233
190 192 191 190 188 188 187 185 184 186 187 192 199 204 210 216 214 214 219 220 226 228 217 219 223 226 224 222 215 220 219 224 227 230 231 232 234 237 236 238 239 240 233
183 185 184 187 186 185 185 185 183 183 184 188 191 197 206 214 213 211 219 223 222 223 217 221 224 229 229 226 220 222 225 225 225 223 219 226 229 233 236 236 238 246 251
174 175 177 182 183 183 182 184 184 185 185 187 194 195 198 201 206 217 220 224 223 224 222 224 226 229 230 228 226 222 219 220 223 227 229 228 228 228 231 235 235 241 255
166 166 166 170 174 175 177 180 183 185 186 187 189 191 193 193 198 209 214 216 221 220 222 224 226 228 231 231 229 230 226 224 224 223 221 223 230 229 226 231 233 234 234
155 154 156 160 166 169 171 174 179 185 186 185 184 187 189 190 196 203 209 211 216 221 222 224 226 228 228 226 226 229 229 228 227 225 223 224 220 221 230 230 229 229 228
148 148 149 155 160 162 165 169 174 181 181 181 184 185 190 194 202 205 207 210 216 225 227 225 227 229 229 229 230 230 230 232 233 229 225 225 224 224 222 224 224 225 224
145 146 144 147 153 157 161 166 170 173 176 179 184 187 193 197 203 208 211 216 221 225 231 232 232 232 233 233 234 236 236 235 236 235 231 227 224 225 223 222 224 226 227
147 145 144 146 153 158 162 165 170 173 177 181 187 190 192 194 201 208 214 219 223 227 231 238 239 237 234 234 234 236 237 239 239 234 231 228 220 226 231 231 221 221 228
149 144 144 145 150 159 165 170 176 176 179 184 186 185 189 193 201 209 213 218 224 230 231 236 241 243 242 215 234 244 237 237 237 235 231 219 206 198 198 222 246 248 236
147 149 153 150 150 158 165 175 179 177 180 185 187 189 193 198 205 212 214 220 227 234 238 241 242 243 242 210 217 232 233 233 235 235 235 233 217 208 215 207 210 225 238
136 149 158 155 158 160 162 169 172 175 179 183 187 192 200 206 212 215 218 225 232 238 245 248 249 247 238 208 213 227 232 238 235 231 229 230 227 219 216 220 222 226 225
115 128 144 162 160 163 168 169 169 172 175 181 190 199 207 212 217 223 227 233 241 245 247 249 251 251 244 217 212 224 233 230 230 230 228 227 227 203 219 225 228 231 231
95 120 134 166 175 174 174 178 182 182 186 198 206 210 214 219 226 233 235 236 239 240 240 243 248 252 252 227 214 220 232 227 226 223 223 222 222 196 208 225 230 232 230
80 103 136 164 197 191 186 187 194 199 202 215 221 218 216 224 232 240 244 244 242 242 241 241 243 243 244 220 212 219 232 231 229 228 229 215 173 192 206 231 234 233 237
81 104 132 150 188 196 196 204 223 263 270 254 243 239 238 242 238 244 249 246 243 239 238 237 242 240 232 222 213 213 223 239 234 234 233 197 159 184 205 221 219 217 232
55 59 85 79 47 8 243 257 325 334 307 276 257 256 252 249 244 241 241 240 237 242 243 242 243 240 233 214 194 203 209 217 226 233 198 163 172 189 203 203 209 218 228
7 358 350 334 350 355 332 314 318 311 282 261 255 250 246 244 243 248 244 247 249 250 249 248 248 245 234 236 226 218 208 201 212 219 176 171 191 212 213 202 213 227 233
339 328 317 309 316 327 315 313 310 295 274 263 256 252 244 243 245 249 260 257 262 269 264 259 255 252 248 239 245 244 227 222 210 205 213 211 203 208 213 219 220 225 224
319 311 307 308 310 304 295 290 281 269 264 261 261 257 252 243 242 245 255 254 261 255 258 271 272 266 246 196 200 218 219 203 186 203 217 217 214 219 222 226 223 227 234
Height
1524 1527 1529 1531 1533 1534 1536 1538 1539 1541 1542 1543 1545 1546 1547 1548 1549 1549 1550 1550 1551 1552 1552 1554 1554 1555 1555 1556 1557 1557 1558 1559 1559 1560 1560 1561 1561 1561 1561 1561 1561 1562 1562
1521 1524 1526 1528 1530 1532 1534 1536 1537 1539 1541 1542 1543 1545 1546 1547 1548 1548 1548 1549 1550 1551 1552 1552 1552 1553 1553 1554 1555 1556 1557 1557 1558 1559 1559 1559 1561 1559 1559 1559 1559 1560 1560
1516 1520 1522 1525 1527 1529 1531 1533 1535 1537 1539 1541 1543 1544 1544 1546 1546 1547 1547 1548 1548 1549 1550 1550 1551 1551 1552 1553 1553 1553 1554 1555 1556 1556 1558 1558 1557 1558 1558 1557 1557 1557 1558
1512 1515 1519 1521 1524 1526 1529 1531 1533 1535 1537 1539 1541 1542 1543 1545 1545 1546 1546 1546 1547 1547 1548 1549 1549 1549 1550 1550 1551 1551 1552 1553 1554 1554 1554 1555 1555 1556 1556 1556 1556 1556 1556
1508 1511 1515 1518 1521 1523 1526 1528 1530 1532 1535 1537 1539 1540 1542 1543 1544 1544 1545 1545 1545 1546 1546 1547 1547 1547 1547 1548 1548 1549 1549 1550 1551 1552 1552 1552 1553 1553 1554 1554 1555 1554 1554
1504 1508 1511 1515 1518 1520 1523 1525 1527 1529 1532 1534 1536 1538 1539 1540 1541 1542 1543 1544 1544 1544 1544 1545 1545 1545 1545 1545 1545 1546 1547 1548 1548 1549 1549 1550 1551 1551 1552 1552 1552 1552 1552
1500 1504 1507 1511 1513 1516 1519 1522 1524 1526 1529 1531 1533 1535 1537 1538 1539 1540 1541 1541 1542 1543 1542 1543 1542 1542 1542 1543 1543 1543 1544 1544 1545 1545 1546 1547 1548 1549 1549 1550 1550 1550 1550
1496 1500 1503 1506 1509 1512 1515 1518 1520 1523 1525 1528 1530 1532 1533 1535 1536 1537 1538 1539 1540 1540 1540 1540 1540 1540 1540 1540 1540 1541 1541 1542 1542 1543 1543 1544 1545 1546 1547 1547 1548 1548 1548
1493 1496 1499 1503 1506 1509 1511 1514 1517 1520 1522 1525 1527 1528 1530 1532 1534 1534 1535 1536 1537 1537 1537 1537 1537 1537 1537 1537 1538 1538 1538 1539 1539 1540 1540 1541 1542 1543 1544 1544 1545 1546 1545
1491 1494 1496 1500 1503 1506 1509 1511 1514 1516 1519 1522 1524 1526 1527 1529 1530 1531 1532 1533 1533 1534 1534 1534 1534 1534 1534 1534 1535 1535 1535 1536 1536 1536 1537 1537 1539 1540 1540 1541 1541 1542 1543
1489 1491 1494 1497 1500 1503 1506 1508 1511 1513 1516 1518 1521 1523 1524 1525 1527 1528 1529 1529 1530 1530 1530 1531 1531 1531 1531 1531 1531 1532 1532 1532 1533 1533 1534 1534 1535 1536 1537 1538 1538 1538 1539
1488 1490 1492 1495 1498 1501 1503 1505 1508 1511 1513 1515 1517 1519 1521 1522 1523 1524 1525 1526 1526 1527 1527 1527 1527 1527 1527 1527 1527 1528 1529 1529 1529 1529 1530 1530 1531 1532 1533 1534 1535 1535 1535
1487 1489 1491 1493 1496 1498 1501 1503 1505 1508 1510 1512 1514 1516 1517 1519 1520 1521 1522 1523 1523 1523 1524 1524 1524 1524 1524 1524 1524 1524 1525 1525 1525 1526 1526 1526 1527 1528 1529 1530 1531 1531 1532
1486 1488 1490 1492 1494 1496 1498 1500 1502 1505 1507 1509 1511 1513 1514 1515 1517 1518 1518 1519 1520 1520 1520 1520 1520 1520 1520 1520 1520 1520 1521 1521 1521 1521 1522 1522 1523 1524 1525 1526 1526 1527 1528
1486 1487 1489 1491 1493 1495 1496 1498 1500 1502 1504 1506 1508 1509 1511 1512 1514 1514 1515 1515 1516 1516 1516 1517 1516 1516 1516 1517 1517 1517 1517 1517 1517 1518 1518 1518 1519 1520 1521 1522 1522 1523 1524
1486 1487 1489 1490 1492 1493 1494 1496 1498 1499 1501 1503 1505 1506 1507 1509 1510 1511 1511 1512 1512 1513 1513 1513 1512 1512 1513 1512 1513 1513 1513 1513 1513 1514 1515 1515 1515 1516 1517 1517 1518 1519 1520
1485 1487 1489 1490 1491 1492 1493 1494 1496 1497 1499 1500 1502 1503 1504 1505 1506 1507 1508 1508 1508 1509 1509 1509 1508 1508 1508 1508 1508 1509 1509 1509 1509 1510 1511 1512 1512 1512 1513 1513 1513 1514 1515
1484 1485 1488 1489 1490 1491 1492 1493 1494 1495 1496 1498 1499 1500 1501 1502 1503 1503 1503 1504 1504 1505 1505 1505 1505 1504 1504 1504 1504 1504 1505 1505 1505 1506 1506 1507 1507 1508 1508 1509 1509 1510 1510
1483 1484 1486 1488 1489 1489 1490 1491 1492 1493 1494 1494 1495 1496 1497 1498 1498 1499 1499 1499 1500 1500 1500 1501 1501 1500 1500 1500 1500 1500 1500 1500 1501 1502 1502 1503 1503 1503 1504 1505 1505 1506 1506
1483 1483 1484 1487 1488 1488 1488 1489 1490 1490 1491 1491 1492 1493 1494 1494 1495 1495 1495 1495 1495 1496 1496 1496 1496 1496 1495 1495 1495 1495 1496 1496 1497 1497 1498 1498 1498 1499 1499 1500 1501 1502 1502
1482 1482 1483 1485 1486 1486 1486 1487 1488 1488 1488 1489 1489 1490 1490 1490 1491 1491 1491 1491 1491 1491 1490 1490 1490 1491 1491 1490 1490 1491 1491 1492 1492 1493 1493 1494 1494 1494 1495 1496 1496 1496 1497
1482 1482 1483 1484 1484 1484 1485 1485 1485 1486 1486 1486 1486 1487 1487 1488 1488 1487 1486 1486 1486 1486 1486 1486 1486 1486 1486 1485 1486 1486 1487 1487 1488 1488 1489 1489 1489 1490 1490 1491 1491 1492 1493
1481 1482 1482 1483 1482 1482 1482 1482 1482 1482 1483 1483 1483 1484 1484 1484 1484 1483 1482 1482 1482 1482 1482 1482 1482 1482 1481 1481 1481 1482 1482 1482 1483 1484 1484 1484 1485 1485 1486 1487 1487 1488 1489
1481 1481 1481 1481 1480 1480 1480 1480 1480 1479 1479 1480 1481 1481 1481 1480 1480 1480 1479 1479 1479 1478 1478 1478 1477 1477 1477 1476 1476 1477 1477 1478 1478 1479 1479 1480 1480 1481 1482 1482 1483 1484 1484
1481 1481 1480 1480 1479 1478 1478 1478 1477 1477 1476 1477 1478 1478 1478 1477 1477 1476 1476 1475 1475 1474 1474 1473 1473 1472 1472 1472 1472 1473 1473 1474 1474 1474 1475 1475 1476 1477 1478 1478 1479 1479 1480
1480 1480 1479 1478 1477 1476 1476 1476 1475 1475 1474 1474 1474 1474 1475 1474 1473 1473 1472 1471 1471 1470 1469 1468 1468 1467 1467 1467 1468 1468 1469 1470 1470 1471 1471 1472 1473 1473 1474 1474 1475 1475 1475